1998-067XK

Last updated on Mon Oct 20 2025 00:02:06 GMT+0000 (Coordinated Universal Time)

1 65731U 98067XK 25292.22986766 .00112388 00000+0 15922-2 0 9991 2 65731 51.6327 51.5425 0003075 346.6473 13.4436 15.55607987 4635
UTC large
Height (km)
Speed (km/s)
/
Latitude / Longitude
Inclination (degrees)
Orbital Period (minutes)
Azimuth
Elevation
Range (km)
Doppler Factor

Next 0 passes for location: London (51.5072 / 0.1276)

Sorry there are no passes over London.